Showing default

ORBCOMM FM 15, 25418

Orbit data source: Space-Track

ORBCOMM FM 15, 25418 is a payload satellite owned by Orbcomm (US) in LEO that was launched on Sun, 02 Aug 1998 UTC via a PEGASUS XL/HAPS launch vehicle from the Pegasus Launch, Eastern Range Air Space (ERAS). Payload-class satellites include a variety of spacecraft equipped with specific instruments for various scientific and technological missions. These include communications satellites like Starlink; space stations such as the ISS; scientific satellites like the Hubble; Earth observation satellites from companies like Planet Labs, Umbra, and HawkEye 360; GPS; miniature CubeSats for education and research; and military/defense satellites.

Loading next visibility...
Identifier
25418, 1998-046F
Orbit
LEO
Country
Flag of USUS / ORB
Related business
Manufacturer
OSC-Germantown
Mission
Non-operational Commercial Communications
Bus & Motor
MICROSTAR, Unknown motor
Mass
42 kg wet, 42 kg dry
Launch date (UTC)
1998-08-02 (28 years ago)
Launch vehicle
PEGASUS XL/HAPS
Launch site
Pegasus Launch, Eastern Range Air Space (ERAS)
Object type
Payload
Rocket body
Debris
Shape & HBR
Cyl + 2 Pan, 4.2 m
Radar Cross Section
1.484 m², Medium (>0.1 m² and < 1m²)

Expand to show TLE details & history
Last TLE update: 2 days ago

TLE from 2 days ago
0 ORBCOMM FM 15
1 25418U 98046F   26171.21617829  .00000448  00000-0  18691-3 0  9994
2 25418  44.9953 229.7007 0004225 314.6849  45.3655 14.39689721457263
Epoch: 2026-06-20T05:11Z
TLE epoch observation values (Epoch: 2026-06-20T05:11:17.804Z)
Latitude
-0.00002°
Longitude
-116.55749°
Altitude
757.404 km
Speed
7.478 km/s
True Right ascension
15h 18m 48s
True Declination
0° 00' 00"
Sunlit
Object was in full shadow at epoch
Visualization orbit readout
Latitude
Unknown
Longitude
Unknown
Altitude
Unknown
Speed
Unknown
Apparent Right ascension
Unknown
Apparent Declination
Unknown
Sunlit
N/A
Visualization observer readout
Local Sidereal Time
00:51:09
Azimuth
Unknown
Elevation
Unknown
Doppler factor
Unknown
Orbital elements
Apogee altitude
764.088 km
Perigee altitude
758.055 km
Semi-major axis
7,139.209 km
Eccentricity
0.00042
Inclination
44.9953°
RAAN
229.7007°
Arg. of periapsis
314.6849°
True anomaly
45.39997°
Mean anomaly
45.3655°
Eccentric anomaly
45.38273°
Mean motion
3.59806 °/min
Orbital period
100.05 mins
BSTAR
0.00018691
Loading maneuver chart data...
Computing Atmospheric mass density...

Documentation

Showing up to 5 results
|